Weather in Borova

Ukraine / Kharkiv Region     49˚22′38″N   37˚37′31″E
temp.,
°C
wind,
m/s
gust,
m/s
humid.,
%
clouds,
%
prec.,
mm/h
press.,
hPa
HPBL,
m
3 december, thu
thu323:00−2˚ese61182100 0.0 1032527
02:00−2˚ese61183100 0.0 1032496
05:00−3˚ese61091100 0.8 1031463
08:00−3˚ese61091100 1.9 1031471
11:00−3˚ese61191100 0.8 1032456
14:00−2˚ese5993100 1.9 1031502
17:00−1˚ese51096100 0.9 1031489
20:00−1˚ese51095100 1.7 1031463
4 december, fri
fri423:00−2˚ese5996100 0.4 1031382
02:00−2˚ese5994100 0.6 1032365
05:00−3˚ese51093100 0.2 1031366
08:00−3˚ese5991100 0.3 1032405
11:00−2˚ese5991100 0.0 1032403
14:00−2˚ese6990100 0.0 1032427
17:00−2˚ese61089100 0.0 1033445
20:00−2˚ese61185100 0.0 1033506
5 december, sat
sat523:00−3˚ese61080100 0.0 1033444
02:00−4˚ese61180100 0.0 1034416
05:00−6˚e5108367 0.0 1034344
08:00−6˚e6128133 0.0 1035366
11:00−4˚e610730 0.0 1035429
14:00−4˚e611710 0.0 1034429
17:00−6˚e612790 0.0 1035340
20:00−7˚e511800 0.0 1036330
6 december, sun
sun623:00−8˚e511780 0.0 1036303
02:00−8˚e511790 0.0 1036282
05:00−9˚e511800 0.0 1037275
08:00−9˚e611790 0.0 1037306
11:00−6˚e610710 0.0 1037359
14:00−5˚e510730 0.0 1036373
17:00−8˚e511870 0.0 1036316
20:00−8˚e511890 0.0 1037331
7 december, mon
mon723:00−8˚e512870 0.0 1037353
02:00−9˚e611850 0.0 1037331
05:00−9˚e511830 0.0 1037302
08:00−9˚e611870 0.0 1037326
11:00−6˚e711800 0.0 1037409
14:00−5˚e612760 0.0 1036464
17:00−7˚e613790 0.0 1036399
20:00−7˚e613800 0.0 1036382